Regional Weather Roundup
Issued by NWS

Home | Current Version | Previous Version | Graphics & Text | Print | Product List | Glossary On
Versions: 1 2 3 4 5 6 7 8 9 10 11 12 13 14 15 16 17 18 19 20 21 22 23 24 25 26 27 28 29 30 31 32 33 34 35 36 37 38 39 40 41 42 43 44 45 46 47 48 49 50
000
ASUS43 KFSD 210410
RWRSD

WEATHER ROUNDUP FOR SOUTH DAKOTA
NATIONAL WEATHER SERVICE SIOUX FALLS SD
1100 PM CDT WED SEP 20 2017

NOTE: "FAIR" INDICATES FEW OR NO CLOUDS BELOW 12,000 FEET WITH NO
SIGNIFICANT WEATHER AND/OR OBSTRUCTIONS TO VISIBILITY.


SDZ001>005-009-010-012>017-210500-
NORTHWEST AND NORTH CENTRAL SOUTH DAKOTA

CITY           SKY/WX    TMP DP  RH WIND       PRES   REMARKS
BUFFALO          N/A     58  33  39 SE14      29.66S
FAITH            N/A     61  28  28 SE13      29.77S
MOBRIDGE       PTCLDY    58  35  42 E12       29.76S
$$

SDZ012>016-024>037-041>051-057-063-072>074-210500-
SOUTHWEST AND SOUTH CENTRAL SOUTH DAKOTA

CITY           SKY/WX    TMP DP  RH WIND       PRES   REMARKS
RAPID CTY ARPT CLEAR     61  36  39 CALM      29.78R
PIERRE         CLEAR     58  36  43 SE9       29.79R
CUSTER         CLOUDY    54  28  36 CALM      29.89S
ELLSWORTH AFB  CLOUDY    63  34  34 S5        29.77S
PHILIP         CLEAR     60  38  43 VRB6      29.77S
PINE RIDGE     CLEAR     67  33  28 S17G28    29.80F
SPEARFISH      FAIR      54  36  50 CALM      29.79R
WINNER         FAIR      62  41  46 S12       29.84R
$$

SDZ004>011-016>023-039-040-210500-
NORTHEAST SOUTH DAKOTA

CITY           SKY/WX    TMP DP  RH WIND       PRES   REMARKS
ABERDEEN       CLEAR     55  44  66 SE12      29.83R
WATERTOWN      CLEAR     55  46  71 SE9       29.89R
BROOKINGS      CLEAR     55  47  74 SE10      29.92R
SISSETON         N/A     50  46  86 E7        29.87S
$$

SDZ017-020-022-023-036>040-048>070-210500-
SOUTHEAST SOUTH DAKOTA

CITY           SKY/WX    TMP DP  RH WIND       PRES   REMARKS
SIOUX FALLS    CLEAR     53  50  89 CALM      29.92R
HURON          CLEAR     57  47  69 SE12      29.86R
CHAMBERLAIN    CLEAR     54  47  78 SE8       29.85R
MITCHELL       CLEAR     58  49  72 S9        29.87S
YANKTON        CLEAR     59  50  72 SE5       29.91R
$$

ABBREVIATIONS USED IN REMARKS
   TC - TEMPERATURE IN CELSIUS
  WCI - WIND CHILL INDEX
   HX - HEAT INDEX
  VSB - VISIBILITY





USA.gov is the U.S. government's official web portal to all federal, state and local government web resources and services.